Change the Weather History Date:

Thursday, October 3, 2013

  Actual Average Record
Temperature  
Mean Temperature 42 °F -  
Max Temperature 55 °F 55 °F 69 °F (2003)
Min Temperature 30 °F 33 °F 24 °F (2006)
Degree Days  
Heating Degree Days 22    
Moisture  
Dew Point 34 °F    
Average Humidity 88    
Maximum Humidity 100    
Minimum Humidity 47    
Precipitation  
Precipitation 0.00 in - - ()
Sea Level Pressure  
Sea Level Pressure 30.38 in    
Wind  
Wind Speed 1 mph ()    
Max Wind Speed 6 mph    
Max Gust Speed -    
Visibility 6.2 miles    
Events Fog    
Averages and records for this station are not official NWS values.
T = Trace of Precipitation, MM = Missing Value Source: Averaged Metar Reports

Daily Weather History Graph

Daily Weather History Graph

Search for Another Location

Airport or City:

Trip Planner

Search our weather history database for the weather conditions in past years. The results will help you decide how hot, cold, wet, or windy it might be!

Date:

Astronomy

Oct. 03, 2013 Rise Set
Actual Time 7:15 AM PDT 6:41 PM PDT
Civil Twilight 6:41 AM PDT 7:15 PM PDT
Nautical Twilight 6:01 AM PDT 7:55 PM PDT
Astronomical Twilight 5:19 AM PDT 8:36 PM PDT
Moon 5:48 AM PDT (10/3) 5:54 PM PDT (10/3)
Length of Visible Light 12h 34m
Length of Day
11h 25m
Waning Crescent, 2% of the Moon is Illuminated
Oct 3
Waning Crescent
Oct 4
New
Oct 11
First Quarter
Oct 18
Full
Oct 26
Last Quarter

Hourly Weather History & Observations

Time (PDT) Temp. Windchill Dew Point Humidity Pressure Visibility Wind Dir Wind Speed Gust Speed Precip Events Conditions
12:00 AM 33.8 °F - 32.0 °F 93% 30.28 in 9.0 mi Calm Calm - N/A   Clear
1:00 AM 32.0 °F - 32.0 °F 100% 30.29 in 9.0 mi South 2.3 mph - N/A   Clear
2:00 AM 30.2 °F - 30.2 °F 100% 30.31 in 9.0 mi Calm Calm - N/A   Partly Cloudy
2:13 AM 30.2 °F - 30.2 °F 100% 30.32 in 9.0 mi Calm Calm - N/A   Mostly Cloudy
3:00 AM 32.0 °F - 30.2 °F 93% 30.33 in 9.0 mi Calm Calm - N/A   Overcast
3:23 AM 32.0 °F - 32.0 °F 100% 30.34 in 2.5 mi Calm Calm - N/A   Overcast
4:00 AM 32.0 °F 28.7 °F 32.0 °F 100% 30.35 in 0.1 mi North 3.5 mph - N/A Fog Fog
5:00 AM 32.0 °F - 32.0 °F 100% 30.37 in 0.5 mi North 2.3 mph - N/A Fog Fog
6:00 AM 32.0 °F - 32.0 °F 100% 30.39 in 0.2 mi Variable 2.3 mph - N/A Fog Fog
7:00 AM 32.0 °F - 32.0 °F 100% 30.40 in 0.4 mi Variable 2.3 mph - N/A Fog Fog
8:00 AM 32.0 °F - 32.0 °F 100% 30.42 in 0.2 mi Variable 2.3 mph - N/A Fog Fog
9:00 AM 33.8 °F - 32.0 °F 93% 30.45 in 0.8 mi Variable 2.3 mph - N/A   Mist
10:00 AM 33.8 °F 28.6 °F 32.0 °F 93% 30.46 in 2.5 mi South 5.8 mph - N/A   Overcast
10:02 AM 33.8 °F 28.6 °F 32.0 °F 93% 30.46 in 3.0 mi South 5.8 mph - N/A   Overcast
11:00 AM 33.8 °F - 33.8 °F 100% 30.46 in 7.0 mi Calm Calm - N/A   Overcast
11:56 AM 37.4 °F - 35.6 °F 93% 30.45 in 8.0 mi Variable 2.3 mph - N/A   Scattered Clouds
12:00 PM 39.2 °F 37.0 °F 37.4 °F 93% 30.45 in 8.0 mi WSW 3.5 mph - N/A   Scattered Clouds
1:00 PM 42.8 °F - 39.2 °F 87% 30.43 in 9.0 mi Calm Calm - N/A   Clear
2:00 PM 46.4 °F - 37.4 °F 71% 30.40 in 9.0 mi Variable 2.3 mph - N/A   Clear
3:00 PM 51.8 °F - 37.4 °F 58% 30.38 in 9.0 mi Variable 2.3 mph - N/A   Clear
4:00 PM 53.6 °F - 35.6 °F 51% 30.36 in 9.0 mi South 3.5 mph - N/A   Clear
5:00 PM 55.4 °F - 35.6 °F 47% 30.35 in 9.0 mi SSW 3.5 mph - N/A   Clear
6:00 PM 51.8 °F - 37.4 °F 58% 30.35 in 9.0 mi Variable 2.3 mph - N/A   Clear
7:00 PM 42.8 °F - 37.4 °F 81% 30.36 in 9.0 mi Variable 2.3 mph - N/A   Clear
8:00 PM 41.0 °F - 37.4 °F 87% 30.38 in 9.0 mi Variable 2.3 mph - N/A   Clear
10:00 PM 35.6 °F - 33.8 °F 93% 30.39 in 9.0 mi Calm Calm - N/A   Clear
11:00 PM 33.8 °F - 33.8 °F 100% 30.40 in 9.0 mi Calm Calm - N/A   Clear